EW2895 Weather Reports


Display with metric or nautical units.
time (UTC)temp
F
wind
direction
speed
MPH
gust
MPH
rain 1hr
in
rain 24hr
in
rain mn
in
humidity
%
barometer
mb
20260905200006 91 347 0.0 1.0 0.00 0.00 0.00 54 1008.2
20260905195457 91 347 0.0 1.0 0.00 0.00 0.00 51 1008.2
20260905194947 91 347 0.0 4.0 0.00 0.00 0.00 51 1008.2
20260905194443 91 347 0.0 4.0 0.00 0.00 0.00 51 1008.3
20260905193936 91 347 1.0 8.0 0.00 0.00 0.00 51 1008.3
20260905193429 91 347 1.0 8.0 0.00 0.00 0.00 51 1008.3
20260905192919 90 219 0.0 1.0 0.00 0.00 0.00 54 1008.4
20260905192854 90 161 0.0 4.0 0.00 0.00 0.00 51 1008.4
20260905191851 91 252 0.0 6.0 0.00 0.00 0.00 51 1008.4
20260905191351 91 220 0.0 6.0 0.00 0.00 0.00 49 1008.7
20260905190848 91 158 0.0 1.0 0.00 0.00 0.00 51 1008.7
20260905190346 91 153 0.0 4.0 0.00 0.00 0.00 51 1008.7
20260905185845 91 241 1.0 6.0 0.00 0.00 0.00 49 1008.8
20260905185350 90 358 0.0 5.0 0.00 0.00 0.00 51 1008.8
20260905185346 91 254 1.0 6.0 0.00 0.00 0.00 48 1008.8
20260905184832 90 272 0.0 5.0 0.00 0.00 0.00 53 1009.2
20260905183831 90 276 1.0 6.0 0.00 0.00 0.00 51 1009.2
20260905183329 90 276 1.0 7.0 0.00 0.00 0.00 49 1009.2
20260905182829 90 233 0.0 7.0 0.00 0.00 0.00 51 1009.3
20260905182327 89 299 0.0 4.0 0.00 0.00 0.00 50 1009.3
20260905181827 89 296 0.0 4.0 0.00 0.00 0.00 50 1009.3
20260905181311 89 296 0.0 5.0 0.00 0.00 0.00 52 1009.4
20260905180759 89 296 0.0 5.0 0.00 0.00 0.00 53 1009.4
20260905180255 88 326 0.0 6.0 0.00 0.00 0.00 53 1009.4
20260905175749 88 279 0.0 6.0 0.00 0.00 0.00 51 1009.6
20260905175745 88 326 1.0 6.0 0.00 0.00 0.00 51 1009.6
20260905174733 88 318 0.0 1.0 0.00 0.00 0.00 54 1009.6
20260905174231 87 318 0.0 8.0 0.00 0.00 0.00 54 1009.8
20260905173718 87 318 0.0 8.0 0.00 0.00 0.00 52 1009.8
20260905173213 87 231 0.0 1.0 0.00 0.00 0.00 52 1009.8
20260905172705 87 231 0.0 1.0 0.00 0.00 0.00 54 1010.0
20260905172155 87 231 0.0 3.0 0.00 0.00 0.00 54 1010.0
20260905171649 86 231 0.0 3.0 0.00 0.00 0.00 54 1010.0
20260905171146 86 227 0.0 1.0 0.00 0.00 0.00 55 1010.2
20260905170637 86 227 0.0 1.0 0.00 0.00 0.00 55 1010.2
20260905170133 85 227 0.0 1.0 0.00 0.00 0.00 53 1010.2
20260905165627 85 227 0.0 1.0 0.00 0.00 0.00 53 1010.4
20260905165119 85 227 0.0 6.0 0.00 0.00 0.00 55 1010.4
20260905164617 85 108 0.0 6.0 0.00 0.00 0.00 52 1010.4
20260905164601 85 111 0.0 7.0 0.00 0.00 0.00 55 1010.6
20260905163601 85 111 0.0 7.0 0.00 0.00 0.00 54 1010.6
20260905163049 85 104 0.0 1.0 0.00 0.00 0.00 55 1010.6
20260905162549 85 104 0.0 1.0 0.00 0.00 0.00 57 1010.6
20260905162027 85 104 0.0 1.0 0.00 0.00 0.00 56 1010.6
20260905161525 84 104 0.0 1.0 0.00 0.00 0.00 57 1010.6
20260905161521 84 104 0.0 1.0 0.00 0.00 0.00 57 1010.6
20260905160513 84 104 0.0 1.0 0.00 0.00 0.00 57 1010.6
20260905160011 83 104 0.0 1.0 0.00 0.00 0.00 59 1010.6
20260905155501 82 104 0.0 4.0 0.00 0.00 0.00 58 1010.6
20260905155457 82 104 0.0 1.0 0.00 0.00 0.00 57 1010.6
20260905154443 82 104 0.0 4.0 0.00 0.00 0.00 60 1010.7
20260905153926 82 312 0.0 1.0 0.00 0.00 0.00 60 1010.7
20260905153427 82 312 0.0 1.0 0.00 0.00 0.00 62 1010.7
20260905152901 81 312 0.0 1.0 0.00 0.00 0.00 61 1010.9
20260905152356 81 312 0.0 1.0 0.00 0.00 0.00 60 1010.9
20260905151854 81 123 0.0 1.0 0.00 0.00 0.00 61 1010.9
20260905151355 81 123 0.0 1.0 0.00 0.00 0.00 62 1010.8
20260905150839 81 123 0.0 1.0 0.00 0.00 0.00 61 1010.8
20260905150337 81 123 0.0 3.0 0.00 0.00 0.00 61 1010.8
20260905145836 81 123 0.0 5.0 0.00 0.00 0.00 61 1010.9
20260905145319 80 121 0.0 5.0 0.00 0.00 0.00 62 1010.9
20260905145311 80 287 0.0 4.0 0.00 0.00 0.00 63 1011.0
20260905144914 80 287 0.0 3.0 0.00 0.00 0.00 63 1010.9
20260905143754 80 36 0.0 4.0 0.00 0.00 0.00 62 1011.0
20260905143748 80 36 0.0 4.0 0.00 0.00 0.00 62 1011.0
20260905142746 79 217 0.0 2.0 0.00 0.00 0.00 64 1011.2
20260905142739 79 217 0.0 2.0 0.00 0.00 0.00 64 1011.2
20260905141731 78 52 0.0 2.0 0.00 0.00 0.00 64 1011.2
20260905141227 78 106 0.0 6.0 0.00 0.00 0.00 65 1011.3
20260905140716 77 108 0.0 9.0 0.00 0.00 0.00 66 1011.3
20260905140216 77 108 1.0 9.0 0.00 0.00 0.00 66 1011.3
20260905140158 76 211 1.0 6.0 0.00 0.00 0.00 68 1011.3
20260905135157 76 110 0.0 6.0 0.00 0.00 0.00 67 1011.3
20260905134655 76 105 0.0 4.0 0.00 0.00 0.00 69 1011.3
20260905134647 75 270 0.0 4.0 0.00 0.00 0.00 71 1011.3
20260905133637 75 106 0.0 4.0 0.00 0.00 0.00 71 1011.3
20260905133623 74 105 0.0 2.0 0.00 0.00 0.00 72 1011.3
20260905132618 74 105 0.0 2.0 0.00 0.00 0.00 72 1011.5
20260905132105 74 105 0.0 6.0 0.00 0.00 0.00 72 1011.5
20260905131544 74 82 0.0 5.0 0.00 0.00 0.00 72 1011.5
20260905131045 74 87 1.0 6.0 0.00 0.00 0.00 73 1011.5
20260905130544 73 81 1.0 6.0 0.00 0.00 0.00 73 1011.5
20260905130042 73 105 0.0 5.0 0.00 0.00 0.00 74 1011.4
20260905125535 73 101 0.0 6.0 0.00 0.00 0.00 74 1011.4
20260905125034 73 101 0.0 6.0 0.00 0.00 0.00 75 1011.4
20260905124535 73 101 0.0 5.0 0.00 0.00 0.00 75 1011.3
20260905124035 73 110 0.0 4.0 0.00 0.00 0.00 75 1011.3
20260905123534 73 112 0.0 4.0 0.00 0.00 0.00 76 1011.3
20260905123034 72 120 0.0 2.0 0.00 0.00 0.00 76 1011.3
20260905122525 72 120 0.0 2.0 0.00 0.00 0.00 76 1011.3
20260905122025 72 36 0.0 1.0 0.00 0.00 0.00 77 1011.3
20260905121520 72 36 0.0 2.0 0.00 0.00 0.00 77 1011.2
20260905121010 72 36 0.0 5.0 0.00 0.00 0.00 78 1011.2
20260905120510 72 33 0.0 5.0 0.00 0.00 0.00 78 1011.2
20260905115936 72 314 0.0 0.0 0.00 0.00 0.00 77 1011.2
20260905115427 72 314 0.0 6.0 0.00 0.00 0.00 77 1011.2
20260905114914 72 314 1.0 8.0 0.00 0.00 0.00 77 1011.2
20260905114400 72 45 0.0 8.0 0.00 0.00 0.00 77 1010.8
20260905113905 72 33 0.0 6.0 0.00 0.00 0.00 78 1010.8
20260905113901 72 33 0.0 6.0 0.00 0.00 0.00 78 1010.8
20260905112855 73 37 0.0 10.0 0.00 0.00 0.00 79 1010.6
20260905112851 73 38 0.0 10.0 0.00 0.00 0.00 78 1010.6
20260905111847 73 52 1.0 8.0 0.00 0.00 0.00 79 1010.6
20260905111327 73 39 1.0 6.0 0.00 0.00 0.00 81 1010.5
20260905110744 73 38 1.0 15.0 0.00 0.00 0.00 84 1010.5
20260905110236 74 51 1.0 15.0 0.00 0.00 0.00 87 1010.5
20260905105730 75 68 1.0 8.0 0.00 0.00 0.00 91 1009.9
20260905105230 75 33 1.0 9.0 0.00 0.00 0.00 92 1009.9
20260905104654 75 35 1.0 9.0 0.00 0.00 0.00 92 1009.9
20260905104151 75 231 0.0 0.0 0.00 0.00 0.00 92 1009.2
20260905103644 75 231 0.0 0.0 0.00 0.00 0.00 92 1009.2
20260905103140 75 231 0.0 0.0 0.00 0.00 0.00 92 1009.2
20260905102617 75 231 0.0 0.0 0.00 0.00 0.00 92 1009.2
20260905102116 75 231 0.0 0.0 0.00 0.00 0.00 92 1009.2
20260905101557 75 231 0.0 0.0 0.00 0.00 0.00 92 1009.2
20260905101551 75 231 0.0 0.0 0.00 0.00 0.00 92 1009.1
20260905100541 75 231 0.0 0.0 0.00 0.00 0.00 91 1009.1
20260905100026 75 231 0.0 0.0 0.00 0.00 0.00 92 1009.1
20260905095458 75 231 0.0 0.0 0.00 0.00 0.00 91 1009.1
20260905094958 75 231 0.0 0.0 0.00 0.00 0.00 91 1009.1
20260905094444 75 231 0.0 0.0 0.00 0.00 0.00 91 1009.1
20260905093945 75 231 0.0 0.0 0.00 0.00 0.00 91 1009.1
20260905093940 75 231 0.0 0.0 0.00 0.00 0.00 91 1009.1
20260905093358 75 231 0.0 0.0 0.00 0.00 0.00 91 1009.1
20260905093336 75 231 0.0 0.0 0.00 0.00 0.00 91 1009.1
20260905091835 75 231 0.0 0.0 0.00 0.00 0.00 91 1009.1
20260905091323 76 231 0.0 0.0 0.00 0.00 0.00 91 1008.8
20260905091258 76 231 0.0 0.0 0.00 0.00 0.00 91 1008.8
20260905090903 76 231 0.0 0.0 0.00 0.00 0.00 91 1008.8
20260905085756 76 231 0.0 0.0 0.00 0.00 0.00 91 1008.9
20260905085255 76 231 0.0 0.0 0.00 0.00 0.00 91 1008.9
20260905084748 76 231 0.0 0.0 0.00 0.00 0.00 91 1008.9
20260905084246 76 231 0.0 0.0 0.00 0.00 0.00 91 1009.0
20260905083727 76 231 0.0 0.0 0.00 0.00 0.00 90 1009.0
20260905083216 76 231 0.0 0.0 0.00 0.00 0.00 90 1009.0
20260905082716 76 231 0.0 0.0 0.00 0.00 0.00 90 1008.9
20260905082204 76 231 0.0 0.0 0.00 0.00 0.00 90 1008.9
20260905081654 76 231 0.0 0.0 0.00 0.00 0.00 90 1008.9
20260905081159 76 231 0.0 0.0 0.00 0.00 0.00 90 1008.6
20260905081154 76 231 0.0 0.0 0.00 0.00 0.00 90 1008.6
20260905080152 76 231 0.0 0.0 0.00 0.00 0.00 90 1008.6
20260905075640 76 231 0.0 0.0 0.00 0.00 0.00 90 1008.3
20260905075056 76 231 0.0 0.0 0.00 0.00 0.00 90 1008.3
20260905074556 76 231 0.0 0.0 0.00 0.00 0.00 90 1008.3
20260905074542 76 231 0.0 0.0 0.00 0.00 0.00 90 1008.1
20260905074146 76 231 0.0 0.0 0.00 0.00 0.00 90 1008.1
20260905073015 76 231 0.0 0.0 0.00 0.00 0.00 90 1008.3
20260905072516 76 231 0.0 0.0 0.00 0.00 0.00 90 1008.3
20260905071952 76 231 0.0 0.0 0.00 0.00 0.00 90 1008.4
20260905071947 76 231 0.0 0.0 0.00 0.00 0.00 90 1008.3
20260905071550 76 231 0.0 0.0 0.00 0.00 0.00 90 1008.4
20260905070420 76 231 0.0 0.0 0.00 0.00 0.00 89 1008.4
20260905065905 76 231 0.0 0.0 0.00 0.00 0.00 89 1008.6
20260905065400 76 231 0.0 0.0 0.00 0.00 0.00 89 1008.6
20260905064843 76 231 0.0 0.0 0.00 0.00 0.00 89 1008.6
20260905064838 76 231 0.0 0.0 0.00 0.00 0.00 88 1008.7
20260905063746 76 231 0.0 0.0 0.00 0.00 0.00 88 1008.7
20260905063218 76 231 0.0 0.0 0.00 0.00 0.00 88 1008.7
20260905062654 76 231 0.0 0.0 0.00 0.00 0.00 88 1009.1
20260905062153 76 231 0.0 0.0 0.00 0.00 0.00 88 1009.1
20260905061655 76 231 0.0 0.0 0.00 0.00 0.00 87 1009.1
20260905061159 77 231 0.0 0.0 0.00 0.00 0.00 87 1009.2
20260905061154 77 231 0.0 0.0 0.00 0.00 0.00 87 1009.2
20260905060152 77 231 0.0 0.0 0.00 0.00 0.00 87 1009.2
20260905055634 77 231 0.0 0.0 0.00 0.00 0.00 86 1009.3
20260905055130 77 231 0.0 0.0 0.00 0.00 0.00 86 1009.3
20260905054557 77 231 0.0 0.0 0.00 0.00 0.00 86 1009.3
20260905054054 77 231 0.0 0.0 0.00 0.00 0.00 86 1009.6
20260905054050 77 231 0.0 0.0 0.00 0.00 0.00 86 1009.6
20260905053029 77 231 0.0 0.0 0.00 0.00 0.00 86 1009.7
20260905052451 77 231 0.0 0.0 0.00 0.00 0.00 86 1009.7
20260905051947 78 231 0.0 0.0 0.00 0.00 0.00 86 1009.7
20260905051932 78 231 0.0 0.0 0.00 0.00 0.00 85 1009.7
20260905050849 78 231 0.0 0.0 0.00 0.00 0.00 85 1009.7
20260905050347 78 231 0.0 0.0 0.00 0.00 0.00 85 1009.7
20260905050338 78 231 0.0 0.0 0.00 0.00 0.00 85 1009.6
20260905045331 78 231 0.0 0.0 0.00 0.00 0.00 85 1009.6
20260905044822 78 231 0.0 0.0 0.00 0.00 0.00 85 1009.6
20260905044321 78 231 0.0 0.0 0.00 0.00 0.00 85 1009.7
20260905043823 78 231 0.0 0.0 0.00 0.00 0.00 84 1009.7
20260905043317 78 231 0.0 0.0 0.00 0.00 0.00 84 1009.7
20260905042814 78 231 0.0 0.0 0.00 0.00 0.00 83 1009.7
20260905042758 78 231 0.0 0.0 0.00 0.00 0.00 83 1009.7
20260905041746 78 231 0.0 0.0 0.00 0.00 0.00 83 1009.7
20260905041245 79 231 0.0 0.0 0.00 0.00 0.00 83 1009.8
20260905040741 79 231 0.0 0.0 0.00 0.00 0.00 83 1009.8
20260905040241 79 231 0.0 0.0 0.00 0.00 0.00 82 1009.8
20260905035736 79 231 0.0 0.0 0.00 0.00 0.00 82 1009.8
20260905035207 79 231 0.0 0.0 0.00 0.00 0.00 82 1009.8
20260905034654 79 231 0.0 0.0 0.00 0.00 0.00 81 1009.8
20260905034150 79 231 0.0 0.0 0.00 0.00 0.00 81 1009.9
20260905033611 79 231 0.0 0.0 0.00 0.00 0.00 81 1009.9
20260905033052 80 231 0.0 0.0 0.00 0.00 0.00 81 1009.9
20260905032541 80 231 0.0 0.0 0.00 0.00 0.00 80 1009.9
20260905032042 80 231 0.0 0.0 0.00 0.00 0.00 80 1009.9
20260905031526 80 231 0.0 0.0 0.00 0.00 0.00 79 1009.9
20260905031520 80 231 0.0 0.0 0.00 0.00 0.00 79 1009.9
20260905030508 80 231 0.0 0.0 0.00 0.00 0.00 79 1009.8
20260905030504 80 231 0.0 0.0 0.00 0.00 0.00 79 1009.9
20260905025452 80 231 0.0 0.0 0.00 0.00 0.00 78 1009.8
20260905024946 80 231 0.0 0.0 0.00 0.00 0.00 77 1009.8
20260905024939 80 231 0.0 0.0 0.00 0.00 0.00 77 1009.7
20260905023935 81 231 0.0 0.0 0.00 0.00 0.00 77 1009.7
20260905023424 81 231 0.0 0.0 0.00 0.00 0.00 76 1009.7
20260905022857 81 231 0.0 0.0 0.00 0.00 0.00 76 1009.7
20260905022349 81 231 0.0 0.0 0.00 0.00 0.00 76 1009.7
20260905021840 81 231 0.0 0.0 0.00 0.00 0.00 75 1009.7
20260905021344 82 231 0.0 0.0 0.00 0.00 0.00 74 1009.8
20260905021340 81 231 0.0 0.0 0.00 0.00 0.00 74 1009.8
20260905020336 82 231 0.0 0.0 0.00 0.00 0.00 73 1009.8
20260905015835 82 231 0.0 0.0 0.00 0.00 0.00 73 1009.7
20260905015331 82 231 0.0 0.0 0.00 0.00 0.00 72 1009.7
20260905014826 82 231 0.0 0.0 0.00 0.00 0.00 71 1009.7
20260905014319 83 231 0.0 0.0 0.00 0.00 0.00 71 1009.7
20260905013808 83 231 0.0 0.0 0.00 0.00 0.00 71 1009.7
20260905013254 83 231 0.0 0.0 0.00 0.00 0.00 70 1009.7
20260905012741 83 231 0.0 0.0 0.00 0.00 0.00 70 1009.3
20260905012231 84 231 0.0 0.0 0.00 0.00 0.00 69 1009.3
20260905011715 84 231 0.0 0.0 0.00 0.00 0.00 68 1009.3
20260905011653 84 231 0.0 0.0 0.00 0.00 0.00 66 1009.5
20260905011258 84 231 0.0 0.0 0.00 0.00 0.00 68 1009.5
20260905010147 85 231 0.0 0.0 0.00 0.00 0.00 66 1009.5
20260905010051 86 231 0.0 0.0 0.00 0.00 0.00 63 1009.3
20260905005654 85 231 0.0 0.0 0.00 0.00 0.00 65 1009.4
20260905005154 85 231 0.0 0.0 0.00 0.00 0.00 65 1009.4
20260905004652 85 231 0.0 0.0 0.00 0.00 0.00 64 1009.3
20260905003537 86 231 0.0 0.0 0.00 0.00 0.00 62 1009.3
20260905003018 87 231 0.0 0.0 0.00 0.00 0.00 62 1009.4
20260905002509 87 231 0.0 0.0 0.00 0.00 0.00 61 1009.4
20260905001957 88 231 0.0 0.0 0.00 0.00 0.00 60 1009.4
20260905001952 88 231 0.0 0.0 0.00 0.00 0.00 59 1009.3
20260905001556 88 231 0.0 0.0 0.00 0.00 0.00 58 1009.3
20260905001056 89 231 0.0 0.0 0.00 0.00 0.00 58 1009.3
20260904235940 89 231 0.0 0.0 0.00 0.00 0.00 57 1009.4
20260904235935 89 231 0.0 1.0 0.00 0.00 0.00 56 1009.4
20260904234924 90 231 0.0 0.0 0.00 0.00 0.00 55 1009.3
20260904234919 89 231 0.0 1.0 0.00 0.00 0.00 56 1009.4
20260904233839 90 231 0.0 0.0 0.00 0.00 0.00 54 1009.3
20260904233327 91 231 0.0 0.0 0.00 0.00 0.00 53 1009.3
20260904232824 91 231 0.0 1.0 0.00 0.00 0.00 52 1009.3
20260904232811 91 231 0.0 1.0 0.00 0.00 0.00 51 1009.3
20260904231805 92 231 0.0 0.0 0.00 0.00 0.00 51 1009.3
20260904231302 92 231 0.0 1.0 0.00 0.00 0.00 50 1009.2
20260904230801 92 231 0.0 2.0 0.00 0.00 0.00 50 1009.2
20260904230246 92 231 0.0 2.0 0.00 0.00 0.00 49 1009.2
20260904225733 93 231 0.0 1.0 0.00 0.00 0.00 48 1009.2
20260904225728 94 231 0.0 2.0 0.00 0.00 0.00 48 1009.2
20260904225332 93 231 0.0 2.0 0.00 0.00 0.00 48 1009.2
20260904224207 94 229 0.0 2.0 0.00 0.00 0.00 48 1009.1
20260904223651 94 229 0.0 1.0 0.00 0.00 0.00 47 1009.1
20260904223145 94 229 0.0 5.0 0.00 0.00 0.00 46 1009.1
20260904223132 95 306 0.0 4.0 0.00 0.00 0.00 47 1008.9
20260904222735 95 227 1.0 5.0 0.00 0.00 0.00 45 1008.9
20260904221623 95 262 0.0 3.0 0.00 0.00 0.00 46 1008.9
20260904221114 96 266 0.0 2.0 0.00 0.00 0.00 44 1008.9
20260904220613 96 266 0.0 1.0 0.00 0.00 0.00 44 1008.9
20260904220048 96 252 0.0 1.0 0.00 0.00 0.00 45 1008.7
20260904215535 96 252 0.0 5.0 0.00 0.00 0.00 44 1008.7
20260904215031 97 251 0.0 7.0 0.00 0.00 0.00 42 1008.7
20260904214535 97 226 0.0 2.0 0.00 0.00 0.00 43 1008.7
20260904214531 97 222 0.0 7.0 0.00 0.00 0.00 42 1008.7
20260904214135 97 226 0.0 2.0 0.00 0.00 0.00 40 1008.7
20260904213029 97 218 0.0 4.0 0.00 0.00 0.00 41 1008.8
20260904212523 97 193 0.0 4.0 0.00 0.00 0.00 41 1008.8
20260904212023 97 330 0.0 9.0 0.00 0.00 0.00 39 1008.8
20260904211522 97 334 0.0 9.0 0.00 0.00 0.00 38 1009.1
20260904211023 97 180 1.0 8.0 0.00 0.00 0.00 38 1009.1
20260904210522 97 326 1.0 8.0 0.00 0.00 0.00 41 1009.1
20260904210025 97 305 0.0 6.0 0.00 0.00 0.00 40 1009.2
20260904210021 97 193 0.0 6.0 0.00 0.00 0.00 42 1009.2
20260904205015 97 305 1.0 6.0 0.00 0.00 0.00 43 1009.2
20260904204514 96 202 1.0 5.0 0.00 0.00 0.00 40 1009.3
20260904204009 96 157 1.0 5.0 0.00 0.00 0.00 42 1009.3
20260904203439 96 256 0.0 5.0 0.00 0.00 0.00 41 1009.3
20260904202426 96 292 0.0 5.0 0.00 0.00 0.00 40 1009.7
20260904201915 96 237 1.0 5.0 0.00 0.00 0.00 40 1009.7
20260904201403 96 342 0.0 5.0 0.00 0.00 0.00 41 1009.8
20260904200856 96 20 1.0 10.0 0.00 0.00 0.00 39 1009.8
20260904200355 96 20 1.0 10.0 0.00 0.00 0.00 39 1009.8